User: anonymous   Login
Location: Unspecified
(42.0334°N, 93.6656°W)
Time: 06:23:06
(UTC-06:00)
Language:

Iridium 63 - Orbit

View from above orbital plane
View from above orbital plane
View from above satellite
View from above satellite

Ground track
Ground track

The orbit data is extracted from the following two-line orbital elements,

1 25286U 98021B   17056.56137434  .00000131  00000-0  39248-4 0  9990
2 25286  86.3955 270.9653 0002326  91.4243 325.2666 14.34642754989049
Epoch (UTC): 25 February 2017 13:28:22
Eccentricity: 0.0002326
inclination: 86.3955°
perigee height: 774 km
apogee height: 778 km
right ascension of ascending node: 270.9653°
argument of perigee: 91.4243°
revolutions per day: 14.34642754
mean anomaly at epoch: 325.2666°
orbit number at epoch: 98904

The dashed part of the orbit path shows where the satellite is in the earth's shadow,  

DLR